Tracking 19153 objects as of 27-Apr-2018
HD Live streaming from Space Station
objects crossing your sky now

FENGYUN 1C DEB

Track FENGYUN 1C DEB now!
10-day predictions


NORAD ID: 39537
Int'l Code: 1999-025EWE
Perigee: 849.7 km
Apogee: 1,133.7 km
Inclination: 99.1 °
Period: 104.8 minutes
Semi major axis: 7362 km
RCS: Unknown
Launch date: May 10, 1999
Source: People's Republic of China (PRC)
Launch site: Taiyaun Space Center, China (TSC)

Note: This is SATELLITE DEBRIS
aabbcc
Your satellite tracking list
Your tracking list is empty




NASA's NSSDC Master Catalog

Two Line Element Set (TLE):
1 39537U 99025EWE 18107.06937463  .00000184  00000-0  20977-3 0  9998
2 39537  99.1355 334.8669 0192900 200.2556 159.0865 13.74192575245673
Source of the keplerian elements: AFSPC